Location: Lourdes
(43.1000°N, 0.0500°W)
Time: 23:06:33
(UTC+00:00)

deb Explorer XIX - Visible Passes

Search period start: 24 June 2021 00:00
Search period end: 04 July 2021 00:00
Orbit: 598 x 1383 km, 78.6° (Epoch: 24 June)

Date Brightness Start Highest point End Pass type
(mag) Time Alt. Az. Time Alt. Az. Time Alt. Az.
24 Jun ? 00:20:27 13° SE 00:25:04 22° E 00:30:57 10° NE visible
24 Jun ? 02:05:26 25° SSW 02:10:19 81° WNW 02:18:49 10° NNE visible
25 Jun ? 00:50:20 23° SE 00:54:34 40° E 01:02:10 10° NNE visible
25 Jun ? 02:35:20 19° SW 02:40:44 48° WNW 02:48:53 10° N visible
25 Jun ? 23:36:10 10° ESE 23:39:43 14° ENE 23:43:23 10° NE visible
26 Jun ? 01:20:13 31° S 01:24:23 70° E 01:32:47 10° NNE visible
26 Jun ? 03:05:13 11° WSW 03:11:31 29° WNW 03:18:40 10° N visible
27 Jun ? 00:05:05 18° SE 00:09:01 26° E 00:15:35 10° NE visible
27 Jun ? 01:50:05 29° SSW 01:54:33 71° WNW 02:03:03 10° N visible
27 Jun ? 03:37:26 10° W 03:42:36 18° NW 03:47:56 10° NNW visible
28 Jun ? 00:34:56 29° SSE 00:38:37 47° E 00:46:34 10° NNE visible
28 Jun ? 02:19:55 20° SW 02:25:03 43° WNW 02:33:02 10° N visible
28 Jun ? 23:19:46 12° ESE 23:23:36 17° E 23:28:26 10° NE visible
29 Jun ? 01:04:46 36° S 01:08:32 80° E 01:17:03 10° NNE visible
29 Jun ? 02:49:44 11° WSW 02:55:52 26° WNW 03:02:42 10° N visible
29 Jun ? 23:49:34 23° SE 23:52:59 31° E 00:00:05 10° NNE visible
30 Jun ? 01:34:34 31° SW 01:38:47 63° WNW 01:47:14 10° N visible
30 Jun ? 03:22:24 10° W 03:27:01 16° NW 03:31:45 10° NNW visible
01 Jul ? 00:19:21 35° SSE 00:22:41 55° E 00:30:53 10° NNE visible
01 Jul ? 02:04:21 20° WSW 02:09:21 38° WNW 02:17:07 10° N visible
01 Jul ? 23:04:09 16° ESE 23:07:30 20° E 23:13:11 10° NE visible
02 Jul ? 00:49:08 39° SSW 00:52:42 90° W 01:01:15 10° NNE visible
02 Jul ? 02:34:07 10° WSW 02:40:14 23° WNW 02:46:39 10° N visible
02 Jul ? 23:33:54 28° SE 23:36:59 37° E 23:44:28 10° NNE visible
03 Jul ? 01:18:53 30° SW 01:23:02 55° WNW 01:31:20 10° N visible
03 Jul ? 03:07:35 10° WNW 03:11:26 14° NW 03:15:20 10° NNW visible
03 Jul ? 22:19:09 10° E 22:22:07 12° ENE 22:25:07 10° ENE visible
